GSAT0221 (GALILEO 25)

Last updated on Feb. 23, 2020, 4:52 a.m. UTC

1 43564U 18060A   20052.44082779 -.00000057  00000-0  00000+0 0  9999
2 43564  56.7355  44.2470 0006466 280.8021  79.1351  1.70476035  9838
UTC
Height (km)
Latitude
Longitude
Inclination
Orbital Period
UTC large
Height (km)
Speed (km/s)
/
Latitude / Longitude
Inclination (degrees)
Orbital Period (minutes)
Azimuth
Elevation
Range (km)
Doppler Factor
iOS Compass Heading
iOS Angle

Next 30 passes for location: Hong Kong

Rise time Rise Azimuth (degrees) Set time Set Azimuth (degrees) Duration Max altitude (degrees)

No matching passes for this satellites